This is the latest recevied weather packets stored in our database for station/object SP5FLS-15. If no packets are shown the sender has not sent any weather packets the latest 10 day(s).
| Time | Temp. | Humidity | Pressure | Rain* | Wind** | Luminosity | Snow |
|---|---|---|---|---|---|---|---|
| 1777699502 | 9.44° C | 67% | 1021.9 hPa | - | - | - | - |
| 1777699202 | 8.89° C | 64% | 1022 hPa | - | - | - | - |
| 1777698902 | 8.33° C | 59% | 1021.8 hPa | - | - | - | - |
| 1777698602 | 8.33° C | 55% | 1022 hPa | - | - | - | - |
| 1777698302 | 7.78° C | 50% | 1022.1 hPa | - | - | - | - |
| 1777698002 | 7.78° C | 48% | 1022 hPa | - | - | - | - |
| 1777697702 | 7.22° C | 46% | 1022 hPa | - | - | - | - |
| 1777697402 | 6.67° C | 45% | 1021.8 hPa | - | - | - | - |
| 1777697102 | 6.67° C | 44% | 1021.9 hPa | - | - | - | - |
| 1777696802 | 6.67° C | 42% | 1021.9 hPa | - | - | - | - |
| 1777696502 | 6.11° C | 42% | 1021.9 hPa | - | - | - | - |
| 1777696202 | 6.11° C | 41% | 1021.8 hPa | - | - | - | - |
| 1777695902 | 6.11° C | 41% | 1021.9 hPa | - | - | - | - |
| 1777695602 | 5.56° C | 41% | 1021.7 hPa | - | - | - | - |
| 1777695302 | 5.56° C | 40% | 1021.9 hPa | - | - | - | - |
| 1777695002 | 5.56° C | 39% | 1021.8 hPa | - | - | - | - |
| 1777694702 | 5.56° C | 39% | 1021.7 hPa | - | - | - | - |
| 1777694402 | 5.56° C | 39% | 1021.8 hPa | - | - | - | - |
| 1777694102 | 5.56° C | 40% | 1021.8 hPa | - | - | - | - |
| 1777693802 | 5° C | 39% | 1021.8 hPa | - | - | - | - |
| 1777693502 | 5° C | 40% | 1021.7 hPa | - | - | - | - |
| 1777693202 | 5° C | 39% | 1021.7 hPa | - | - | - | - |
| 1777692902 | 5° C | 39% | 1021.5 hPa | - | - | - | - |
| 1777692602 | 5° C | 38% | 1021.6 hPa | - | - | - | - |
| 1777692302 | 5° C | 40% | 1021.6 hPa | - | - | - | - |
* Rain since midnight (hover to see other rain measurements)
** Current wind speed in m/s (hover to see current wind gust speed)